Hourly Data Report for July 23, 2021

BONAVISTA
NEWFOUNDLAND
Current Station Operator: ECCC - MSC

48°40'02.000" N
53°06'51.000" W
25.60 m
8400601
71178
AVA

Download Data

Hourly Data (July 2021)
Hourly Data Report for July 23, 2021
TIME
LST
Temp Definition
°C
Dew Point Definition
°C
Rel Hum Definition
%
Precip. Amount Definition
mm

Wind Dir Definition
10's deg

Wind Spd Definition
km/h
Visibility Definition
km
Stn Press Definition
kPa
Hmdx Definition


Wind Chill Definition


Weather Definition


00:30 9.7 9.1 97 0.0 10 13   100.87     LegendNANA
01:30 9.7 9.2 97 0.0 9 12   100.84     LegendNANA
02:30 9.7 9.3 97 0.0 9 17   100.79     LegendNANA
03:30 9.8 9.4 97 0.0 9 15   100.78     LegendNANA
04:30 10.0 9.6 97 0.0 9 13   100.81     LegendNANA
05:30 10.1 9.6 97 0.0 9 18   100.81     LegendNANA
06:30 10.3 9.9 97 0.0 9 19   100.83     LegendNANA
07:30 10.4 9.9 97 0.0 10 22   100.88     LegendNANA
08:30 10.8 10.4 97 0.0 11 19   100.92     LegendNANA
09:30 10.9 10.5 97 0.2 11 21   100.92     LegendNANA
10:30 11.8 11.4 97 0.0 12 18   100.95     LegendNANA
11:30 11.9 11.3 96 0.0 12 20   100.96     LegendNANA
12:30 12.6 11.7 94 0.0 11 15   100.94     LegendNANA
13:30 12.7 11.3 92 0.0 11 16   100.94     LegendNANA
14:30 13.4 11.4 88 0.0 11 16   100.96     LegendNANA
15:30 12.8 11.2 90 0.0 11 13   100.99     LegendNANA
16:30 12.4 11.0 91 0.0 10 17   101.01     LegendNANA
17:30 12.3 11.1 92 0.0 11 22   100.98     LegendNANA
18:30 12.1 11.1 93 0.0 11 15   100.99     LegendNANA
19:30 11.6 10.9 95 0.0 12 20   101.01     LegendNANA
20:30 11.5 10.9 96 0.0 13 22   101.02     LegendNANA
21:30 11.6 11.0 96 0.0 13 20   101.04     LegendNANA
22:30 11.8 11.0 95 0.0 12 11   101.05     LegendNANA
23:30 11.8 11.0 95 0.0 8 9   101.03     LegendNANA

Notes on Data Quality.

Legend

  • E = Estimated
  • M = Missing
  • NA = Not Available*
  • [empty] = Indicates an unobserved value
Date modified: